Flag for Russia Weather past 2 weeks in Yekaterinburg, Russia

Now
10 °F

Clear.


Feels Like: 1 °F
Forecast: 7 / 20 °F
Wind: 6 mph from Northwest

Location: Ekaterinburg

Current Time: Mar 27, 2015 at 7:49:04 AM

Latest Report: Mar 27, 2015 at 7:00 AM


Visibility: 10 mi

Pressure: 30.39 "Hg

Humidity: 67%

Dew point: 1 °F

Location of YekaterinburgLocation

Historic Weather in Yekaterinburg — Graph

°F

Yekaterinburg temperature yesterday

Maximum temperature yesterday: 32 °F (at 12:00 AM)
Minimum temperature yesterday: 19 °F (at 7:30 AM)
Average temperature yesterday: 25 °F

Past Weeks' High & Low Weather Summary

 TemperatureHumidityPressure
High48 °F (Mar 18, 3:30 PM)100% (Mar 12, 7:30 PM)30.66 "Hg (Mar 12, 7:30 PM)
Low10 °F (Mar 27, 6:00 AM)26% (Mar 26, 4:30 PM)29.42 "Hg (Mar 22, 3:00 PM)
Average32 °F66%30.06 "Hg
* Reported Mar 12 6:00 AM — Mar 27 6:30 AM, Yekaterinburg, Weather by CustomWeather, © 2015

Note: Actual official high and low records may vary slightly from our data, if they occured in-between our weather recording intervals... More about our weather records

Advertising

Yekaterinburg weather history for previous 24 hours

 ConditionsComfort  
Time TempWeatherWind HumidityBarometerVisibility
6:30 AM
Fri, Mar 27
10 °FClear.6 mph67%30.39 "Hg10 mi
6:00 AM10 °FPassing clouds.3 mph67%30.39 "HgN/A
5:30 AM12 °FClear.6 mph57%30.39 "Hg10 mi
5:00 AM14 °FClear.6 mph52%30.36 "Hg10 mi
4:30 AM14 °FClear.3 mph52%30.36 "Hg10 mi
4:00 AM14 °FClear.6 mph52%30.36 "Hg10 mi
3:30 AM16 °FClear.6 mph53%30.36 "Hg10 mi
3:00 AM16 °FClear.8 mph53%30.33 "Hg10 mi
2:30 AM16 °FClear.6 mph53%30.33 "Hg10 mi
1:30 AM18 °FClear.6 mph49%30.33 "Hg10 mi
1:00 AM18 °FClear.8 mph49%30.33 "Hg10 mi
12:30 AM18 °FClear.8 mph53%30.30 "Hg10 mi
12:00 AM19 °FClear.10 mph49%30.30 "Hg10 mi
11:30 PM
Thu, Mar 26
19 °FClear.13 mph49%30.30 "Hg10 mi
11:00 PM19 °FClear.13 mph49%30.30 "Hg10 mi
10:30 PM21 °FClear.10 mph45%30.27 "Hg10 mi
10:00 PM21 °FClear.13 mph45%30.27 "Hg10 mi
9:30 PM23 °FClear.13 mph42%30.27 "Hg10 mi
9:00 PM23 °FClear.13 mph42%30.24 "Hg10 mi
8:30 PM23 °FClear.13 mph42%30.24 "Hg10 mi
8:00 PM25 °FSunny.13 mph33%30.21 "Hg10 mi
7:30 PM25 °FSunny.13 mph36%30.21 "Hg10 mi
7:00 PM27 °FSunny.15 mph31%30.18 "Hg10 mi
6:30 PM27 °FSunny.20 mph28%30.18 "Hg10 mi
6:00 PM28 °FSunny.20 mph29%30.18 "Hg10 mi
5:30 PM28 °FSunny.22 mph26%30.15 "Hg10 mi
5:00 PM28 °FSunny.22 mph26%30.15 "Hg10 mi
4:30 PM28 °FSunny.20 mph26%30.15 "Hg10 mi
4:00 PM28 °FSunny.20 mph29%30.15 "Hg10 mi
3:30 PM28 °FSunny.20 mph34%30.12 "Hg10 mi
3:00 PM28 °FSunny.20 mph31%30.12 "Hg10 mi
2:30 PM28 °FSunny.22 mph31%30.12 "Hg10 mi
2:00 PM28 °FSunny.22 mph31%30.09 "Hg10 mi
1:30 PM27 °FSunny.24 mph33%30.09 "Hg10 mi
1:00 PM27 °FSunny.24 mph39%30.09 "Hg10 mi
12:30 PM27 °FSunny.22 mph39%30.07 "Hg10 mi
12:00 PM27 °FSunny.22 mph43%30.07 "Hg10 mi
11:30 AM25 °FScattered clouds.24 mph50%30.07 "HgN/A
11:00 AM23 °FScattered clouds.22 mph58%30.07 "HgN/A
10:30 AM23 °FBroken clouds.22 mph58%30.04 "HgN/A
10:00 AM21 °FBroken clouds.20 mph68%30.04 "HgN/A
9:30 AM21 °FBroken clouds.24 mph63%30.01 "HgN/A
9:00 AM21 °FSnow flurries. Partly sunny.22 mph68%30.01 "HgN/A
8:30 AM21 °FSnow flurries. Partly sunny.22 mph68%29.98 "HgN/A
8:00 AM19 °FSnow flurries. Partly sunny.22 mph79%29.98 "HgN/A
7:30 AM19 °FSnow flurries. Passing clouds.22 mph79%29.98 "HgN/A
7:00 AM21 °FSnow flurries. Passing clouds.24 mph68%29.95 "HgN/A
Weather by CustomWeather, © 2015

See weather overviewHow to use our weather pages